Probability
0 0 0 0 0 0 0 0 0 0 6 6 6 16 23 29 16 10 29 61 77 87 100 100 100 100 100 100 100 100 100 100 100 100 100 100 100 100 100 100 100 100 100 100 100 100 100 100 97
0 0 0 0 0 0 0 0 0 0 6 16 23 52 61 74 61 55 58 74 84 94 90 97 100 100 100 100 100 100 100 100 100 100 100 100 100 100 100 100 100 100 100 100 100 100 100 100 97
0 0 0 0 0 0 0 0 0 0 13 16 32 48 61 61 65 71 71 87 90 94 94 97 100 100 100 100 100 100 100 100 100 100 100 100 100 100 100 100 100 100 100 100 100 100 100 100 100
0 0 0 0 0 0 0 0 0 0 13 32 39 52 52 58 68 68 90 90 90 90 97 97 100 100 100 100 100 100 100 100 100 100 100 100 100 100 100 100 100 100 100 100 100 100 100 100 100
0 0 0 0 0 0 0 0 0 0 23 35 45 52 58 65 61 71 77 87 87 94 94 97 100 100 100 100 100 100 100 100 100 100 100 100 100 100 100 100 100 100 100 100 100 100 100 100 100
0 0 0 0 0 0 0 0 6 10 16 23 35 48 55 55 65 65 68 77 81 90 87 94 97 100 100 100 100 100 100 100 100 100 100 100 100 100 100 100 100 100 100 100 100 100 100 100 100
0 0 0 0 0 0 0 3 6 16 23 26 26 42 58 55 61 55 61 68 71 71 81 84 94 94 100 100 100 100 100 100 100 100 100 100 100 100 100 100 100 100 100 100 100 100 100 97 94
0 0 0 0 0 0 0 10 13 23 23 23 39 48 58 52 48 48 58 65 65 65 68 71 74 90 97 100 100 100 100 100 100 100 100 100 100 100 100 100 100 100 100 100 100 100 97 100 97
0 0 0 0 0 0 0 13 19 23 32 39 45 58 52 48 48 55 52 55 61 61 61 61 65 71 74 94 100 100 100 100 100 100 100 97 97 97 97 100 100 100 100 100 100 100 100 97 97
0 0 0 0 0 0 3 13 16 26 39 45 48 48 52 48 39 45 45 48 48 52 52 58 61 65 68 71 81 87 90 94 97 97 94 90 94 94 97 97 97 97 97 94 94 94 97 90 74
0 0 0 0 0 0 10 13 16 29 32 45 52 48 45 39 39 39 42 45 45 45 55 55 58 65 61 68 77 81 81 81 87 87 87 87 84 84 87 87 87 84 90 84 87 90 81 74 68
0 0 0 0 0 6 10 13 29 32 39 35 35 39 32 35 35 32 26 26 26 26 32 35 48 55 55 61 68 77 81 81 81 81 81 77 77 71 71 71 77 81 81 77 81 74 71 74 68
0 0 0 0 3 3 13 23 26 29 32 19 19 26 29 29 26 23 19 19 19 23 16 19 32 32 39 45 52 68 71 77 74 74 74 74 77 61 52 52 52 65 68 74 65 61 55 55 48
0 0 3 3 3 10 10 10 16 19 23 26 23 26 19 13 16 16 10 10 13 10 16 16 19 23 23 32 39 45 52 52 58 55 61 68 61 55 45 45 52 58 55 52 45 42 45 35 32
0 0 0 0 3 6 6 10 16 19 29 26 29 23 13 16 16 13 10 10 6 6 10 10 13 13 16 16 26 29 45 45 42 39 52 52 48 48 42 42 45 48 45 32 45 32 32 29 19
0 0 0 0 0 0 0 3 13 23 29 29 23 19 16 13 13 13 10 6 10 10 6 10 16 6 10 10 13 13 16 23 32 32 32 35 35 35 26 32 32 32 32 29 26 26 29 26 13
0 0 0 0 0 0 3 3 23 23 29 23 19 16 16 13 16 10 6 10 3 3 3 3 3 0 0 6 3 10 10 13 19 16 16 35 29 26 26 26 26 29 29 19 26 19 16 19 13
0 0 0 3 3 6 3 6 23 19 19 19 23 13 10 13 10 6 6 3 3 3 3 0 0 0 0 0 3 10 13 10 6 6 10 10 13 29 23 26 23 26 23 13 13 19 6 6 3
0 0 0 0 0 6 6 13 16 16 16 13 13 13 16 6 3 3 3 3 3 3 3 0 0 0 0 3 3 16 10 10 6 6 10 13 13 13 13 19 13 13 16 13 6 3 6 3 0
0 0 0 3 0 0 6 6 10 16 13 6 13 13 16 13 6 6 3 6 6 3 0 0 0 3 3 3 3 6 3 3 3 3 6 6 6 6 13 13 13 10 13 13 3 3 0 0 0
0 0 0 3 0 3 6 6 10 19 6 16 16 13 13 10 6 6 10 10 6 3 3 3 3 3 3 3 3 6 6 6 3 3 3 3 10 10 10 10 10 6 6 6 0 0 0 0 0
0 0 0 0 0 0 0 3 6 16 19 10 16 13 10 10 10 10 13 10 3 3 3 3 3 3 0 3 6 6 6 6 6 6 3 3 3 3 6 6 6 6 3 6 3 0 0 3 3
0 0 0 0 0 0 0 0 0 23 16 13 10 19 10 6 13 13 13 6 6 3 3 0 0 0 0 0 0 0 0 3 3 3 0 3 3 3 3 3 3 6 6 6 0 0 0 0 3
0 0 0 0 0 0 0 0 3 10 13 16 6 13 10 13 16 16 10 6 3 0 0 0 0 0 0 0 0 0 0 0 0 0 0 0 0 0 3 3 3 0 0 0 0 3 3 0 0
0 0 0 0 0 0 0 0 0 0 0 0 0 10 10 10 6 3 3 0 3 3 3 3 3 3 0 0 0 0 0 0 0 0 0 0 0 0 0 0 0 0 0 0 0 0 0 3 3
0 0 0 0 0 0 0 0 0 0 0 0 3 6 6 6 0 3 0 0 0 0 0 0 0 0 0 0 0 0 0 0 0 0 0 0 0 0 0 0 0 0 0 0 0 0 0 0 0
0 0 0 0 0 0 0 0 0 0 0 3 3 3 3 0 0 0 0 0 0 0 0 0 0 0 0 0 0 0 0 0 0 0 0 0 0 0 0 0 0 0 0 0 0 0 0 0 0
0 0 0 0 0 0 0 0 0 0 6 6 6 3 0 0 0 0 0 0 0 0 0 0 0 0 0 0 0 0 0 0 0 0 0 0 0 0 0 0 0 0 0 0 0 0 0 0 0
0 0 0 0 0 0 0 0 0 0 3 6 6 3 0 0 0 0 0 0 0 0 0 0 0 0 0 0 0 0 0 0 0 0 0 0 0 0 0 0 0 0 0 0 0 0 0 0 0
0 0 0 0 0 0 0 0 0 0 0 3 6 0 0 0 0 0 0 0 0 0 0 0 0 0 0 0 0 0 0 0 0 0 0 0 0 0 0 0 0 0 0 0 0 0 0 0 0
Height
5867 5868 5870 5872 5874 5875 5875 5874 5874 5875 5877 5878 5880 5882 5883 5885 5886 5889 5888 5887 5888 5889 5889 5890 5891 5891 5892 5892 5893 5894 5895 5897 5898 5899 5900 5901 5902 5903 5904 5904 5905 5905 5905 5905 5905 5905 5905 5905 5904
5864 5865 5868 5869 5871 5871 5871 5871 5872 5873 5875 5876 5878 5880 5881 5882 5882 5884 5884 5885 5886 5887 5887 5888 5889 5890 5890 5891 5892 5893 5894 5896 5897 5898 5900 5901 5902 5903 5903 5904 5904 5905 5905 5905 5905 5905 5905 5905 5905
5861 5862 5865 5866 5868 5868 5868 5869 5870 5871 5873 5875 5876 5878 5879 5879 5880 5880 5881 5882 5883 5884 5885 5886 5886 5887 5888 5889 5891 5892 5893 5895 5896 5897 5899 5900 5901 5902 5902 5903 5904 5904 5904 5905 5905 5905 5905 5904 5904
5858 5860 5862 5864 5865 5865 5865 5866 5867 5869 5871 5873 5875 5876 5877 5878 5878 5879 5879 5880 5880 5881 5882 5883 5884 5885 5886 5887 5889 5890 5891 5893 5894 5895 5897 5898 5899 5900 5901 5902 5902 5903 5903 5904 5904 5904 5904 5904 5904
5855 5857 5859 5860 5861 5861 5862 5863 5865 5867 5869 5871 5873 5874 5874 5875 5876 5876 5877 5878 5878 5878 5879 5880 5881 5882 5883 5885 5886 5888 5889 5891 5892 5893 5895 5896 5898 5898 5899 5900 5901 5901 5902 5902 5903 5903 5903 5903 5903
5852 5854 5856 5856 5857 5858 5859 5861 5863 5865 5868 5869 5871 5872 5872 5873 5874 5874 5875 5875 5876 5876 5876 5877 5878 5879 5879 5881 5883 5885 5886 5888 5890 5891 5893 5894 5895 5896 5897 5898 5899 5899 5900 5900 5901 5901 5902 5902 5901
5849 5850 5851 5853 5854 5855 5857 5858 5861 5863 5865 5867 5869 5869 5869 5870 5871 5871 5872 5873 5873 5873 5873 5873 5874 5875 5876 5878 5879 5882 5883 5885 5887 5889 5890 5892 5893 5894 5895 5896 5896 5897 5897 5898 5898 5899 5899 5899 5900
5845 5847 5848 5850 5851 5852 5854 5856 5858 5861 5863 5865 5866 5867 5867 5867 5868 5868 5869 5869 5869 5870 5871 5871 5871 5872 5873 5874 5876 5878 5880 5882 5884 5886 5887 5889 5890 5891 5892 5893 5894 5894 5895 5895 5896 5896 5896 5897 5897
5842 5844 5844 5846 5848 5850 5852 5854 5856 5858 5861 5862 5863 5864 5864 5864 5865 5865 5866 5866 5866 5867 5867 5868 5868 5868 5869 5871 5873 5875 5877 5878 5881 5883 5884 5886 5887 5888 5889 5890 5891 5891 5892 5892 5893 5893 5894 5894 5894
5839 5840 5841 5843 5845 5847 5849 5852 5854 5856 5858 5859 5860 5860 5861 5861 5862 5862 5863 5863 5863 5863 5863 5864 5864 5865 5866 5868 5870 5872 5873 5875 5877 5879 5881 5882 5884 5885 5886 5887 5888 5889 5889 5889 5890 5890 5891 5891 5891
5835 5836 5838 5840 5842 5844 5847 5849 5852 5854 5855 5857 5857 5858 5858 5858 5859 5859 5859 5860 5860 5860 5860 5860 5861 5862 5863 5865 5866 5868 5870 5872 5873 5875 5877 5879 5880 5881 5882 5883 5884 5885 5886 5886 5887 5887 5887 5888 5888
5831 5833 5835 5837 5839 5842 5844 5847 5849 5851 5853 5854 5855 5855 5855 5855 5856 5856 5856 5856 5857 5856 5856 5857 5858 5858 5859 5861 5862 5864 5866 5868 5869 5871 5873 5875 5876 5877 5878 5879 5880 5881 5882 5882 5883 5883 5884 5884 5884
5828 5830 5832 5834 5837 5840 5842 5845 5847 5848 5850 5851 5851 5851 5852 5852 5852 5853 5853 5852 5852 5852 5852 5853 5855 5855 5855 5857 5858 5860 5862 5864 5865 5867 5868 5870 5871 5873 5874 5875 5876 5877 5878 5878 5879 5879 5879 5880 5880
5825 5827 5830 5833 5835 5838 5840 5842 5845 5846 5847 5848 5849 5848 5849 5849 5849 5850 5850 5849 5849 5848 5848 5848 5850 5851 5852 5853 5854 5855 5857 5859 5860 5862 5864 5865 5867 5868 5869 5871 5871 5873 5873 5874 5875 5875 5875 5875 5875
5822 5826 5828 5831 5834 5836 5839 5841 5842 5844 5845 5846 5846 5846 5846 5846 5847 5846 5846 5846 5845 5845 5845 5845 5846 5846 5847 5848 5850 5851 5853 5855 5856 5858 5859 5860 5861 5863 5864 5865 5866 5867 5868 5869 5869 5870 5870 5870 5871
5821 5824 5827 5829 5832 5834 5838 5839 5840 5841 5842 5843 5843 5843 5844 5843 5844 5844 5843 5843 5842 5842 5841 5842 5842 5843 5844 5844 5846 5847 5848 5850 5851 5853 5854 5855 5856 5857 5859 5860 5861 5862 5863 5863 5864 5864 5865 5865 5866
5820 5822 5825 5827 5829 5832 5835 5837 5838 5839 5840 5840 5840 5841 5841 5841 5841 5841 5840 5840 5839 5838 5838 5839 5839 5839 5840 5841 5842 5843 5844 5845 5846 5848 5849 5850 5851 5852 5853 5854 5855 5856 5857 5858 5858 5859 5859 5860 5860
5818 5820 5823 5825 5827 5829 5832 5834 5835 5836 5837 5838 5838 5838 5838 5838 5838 5838 5837 5837 5837 5836 5836 5835 5836 5836 5837 5837 5837 5839 5840 5841 5842 5843 5844 5845 5845 5846 5847 5848 5849 5850 5851 5852 5852 5853 5853 5854 5854
5817 5819 5821 5824 5825 5827 5829 5831 5833 5834 5835 5835 5835 5835 5835 5835 5834 5834 5834 5834 5834 5834 5833 5833 5832 5833 5833 5834 5834 5835 5836 5837 5837 5838 5838 5839 5839 5840 5841 5842 5842 5843 5844 5845 5845 5846 5847 5848 5848
5815 5818 5820 5821 5823 5826 5827 5829 5831 5832 5832 5833 5833 5832 5832 5832 5831 5831 5831 5831 5831 5831 5830 5829 5829 5829 5829 5829 5830 5830 5831 5832 5832 5832 5832 5833 5834 5834 5834 5835 5836 5836 5836 5837 5838 5839 5840 5840 5841
5814 5817 5819 5820 5822 5823 5825 5827 5828 5829 5830 5830 5830 5829 5829 5828 5828 5828 5828 5828 5828 5827 5827 5826 5826 5825 5825 5825 5825 5825 5826 5826 5826 5826 5826 5827 5827 5828 5828 5828 5829 5829 5830 5830 5831 5832 5833 5833 5834
5814 5816 5817 5819 5820 5822 5824 5825 5826 5826 5827 5827 5826 5826 5826 5826 5825 5825 5824 5824 5824 5824 5824 5823 5822 5822 5821 5821 5821 5820 5820 5820 5820 5820 5820 5820 5821 5821 5821 5821 5821 5822 5823 5823 5824 5824 5825 5825 5826
5812 5814 5816 5817 5819 5820 5821 5823 5824 5824 5824 5824 5823 5823 5822 5822 5821 5821 5821 5821 5821 5820 5820 5820 5819 5818 5817 5816 5816 5815 5815 5815 5815 5815 5815 5814 5814 5814 5813 5814 5814 5815 5815 5816 5816 5817 5817 5818 5818
5811 5813 5814 5815 5816 5818 5819 5820 5821 5821 5821 5821 5820 5819 5818 5818 5817 5817 5817 5817 5817 5816 5816 5815 5815 5814 5813 5812 5811 5811 5810 5809 5809 5809 5808 5808 5807 5807 5806 5806 5806 5807 5807 5808 5809 5809 5810 5810 5811
5809 5811 5812 5813 5814 5815 5816 5816 5818 5818 5818 5817 5817 5815 5814 5813 5813 5813 5813 5813 5813 5812 5812 5811 5810 5809 5808 5807 5806 5805 5804 5803 5803 5802 5801 5801 5800 5799 5799 5798 5798 5799 5800 5800 5801 5801 5802 5802 5803
5807 5809 5811 5811 5811 5812 5812 5813 5815 5814 5814 5814 5813 5812 5810 5809 5809 5809 5808 5808 5808 5808 5807 5806 5805 5804 5803 5802 5801 5799 5798 5797 5796 5795 5794 5793 5793 5792 5791 5791 5791 5791 5792 5793 5793 5794 5794 5795 5795
5804 5805 5807 5808 5808 5809 5809 5810 5811 5810 5810 5809 5809 5808 5807 5806 5805 5804 5804 5803 5803 5802 5801 5801 5800 5798 5797 5796 5794 5793 5791 5790 5789 5788 5788 5787 5786 5785 5784 5783 5784 5784 5784 5785 5786 5786 5786 5787 5787
5802 5803 5804 5805 5805 5805 5806 5807 5807 5807 5806 5806 5805 5804 5803 5802 5801 5799 5799 5798 5797 5796 5795 5794 5793 5792 5790 5789 5787 5786 5785 5784 5783 5782 5781 5780 5778 5778 5777 5777 5777 5777 5777 5778 5778 5779 5779 5779 5779
5799 5800 5800 5801 5802 5802 5802 5805 5804 5803 5802 5801 5800 5799 5798 5797 5796 5794 5793 5792 5791 5790 5789 5788 5786 5785 5783 5782 5781 5779 5778 5777 5776 5775 5773 5772 5771 5770 5770 5770 5770 5770 5770 5771 5771 5771 5771 5772 5771
5795 5796 5797 5799 5799 5799 5799 5803 5799 5799 5798 5797 5796 5794 5792 5791 5790 5788 5787 5786 5785 5784 5782 5781 5779 5778 5776 5775 5773 5772 5771 5770 5768 5767 5766 5765 5764 5763 5762 5762 5762 5762 5762 5763 5763 5764 5764 5764 5764
Wind_Speed
16 16 16 16 16 16 17 20 21 21 20 18 17 15 12 12 10 10 10 10 10 10 10 10 10 9 8 7 6 6 5 5 4 4 4 3 3 3 3 4 5 6 6 7 7 7 8 8 8
16 16 16 16 16 17 20 22 22 22 21 19 17 16 14 12 11 11 12 12 12 12 12 12 12 11 10 9 8 8 7 6 6 5 5 5 5 4 4 5 5 6 6 6 7 7 7 7 7
16 16 17 17 17 19 22 23 24 23 22 20 17 16 14 13 12 12 13 14 14 15 15 14 14 13 12 11 10 9 9 8 8 7 6 6 6 6 6 6 6 6 6 7 7 7 7 7 7
16 16 17 17 18 21 24 24 25 24 22 20 18 17 15 15 14 14 15 16 17 18 17 15 14 13 13 12 12 11 10 10 9 9 8 8 7 7 7 7 7 7 7 7 7 7 8 8 8
16 16 17 18 20 23 25 26 25 24 22 20 19 18 16 16 16 16 16 17 19 18 18 16 15 14 14 13 13 13 12 12 11 10 10 9 9 8 8 8 8 8 8 8 8 8 8 8 9
16 16 18 20 23 25 26 26 25 24 22 20 19 19 18 18 18 17 18 18 19 18 18 17 16 16 15 15 14 14 14 14 13 12 12 11 11 10 10 10 10 10 10 10 10 9 9 9 10
16 17 20 22 24 26 27 26 26 25 23 20 19 18 19 19 17 17 19 19 20 20 19 17 16 17 17 17 17 16 16 16 15 15 14 13 13 12 12 12 12 12 12 12 12 11 10 11 11
17 19 21 24 26 27 27 27 25 24 22 21 20 19 19 18 18 18 18 19 20 20 20 19 16 17 17 18 18 18 17 17 16 16 15 15 14 14 13 13 13 13 14 13 13 12 12 11 12
19 20 23 25 27 27 27 27 25 23 21 20 19 19 20 19 18 18 18 19 19 19 19 20 19 18 17 17 17 18 18 18 18 17 17 16 16 16 15 15 15 14 14 14 14 14 13 13 13
20 22 24 26 27 27 27 27 25 23 21 19 18 17 18 18 18 18 18 18 18 19 20 21 20 19 19 18 17 18 18 19 19 19 18 18 18 17 17 17 17 16 16 16 15 15 14 15 15
22 24 25 27 27 27 27 26 24 22 20 18 16 16 18 17 16 17 17 17 17 18 19 19 18 19 20 19 19 19 19 19 20 20 20 19 19 19 18 18 18 18 17 17 17 17 16 16 16
23 25 26 27 27 26 26 24 22 21 19 17 16 16 17 16 15 16 16 15 15 15 16 16 18 17 18 19 19 20 20 20 20 21 21 20 20 20 20 20 19 19 18 18 18 18 18 17 18
25 26 26 26 25 25 24 24 22 20 19 17 16 16 16 15 15 16 16 16 15 14 15 15 17 17 17 18 19 20 19 19 19 21 21 22 22 22 21 21 21 20 19 19 19 19 19 19 19
25 27 26 25 24 23 23 22 21 20 18 17 16 14 14 15 15 15 14 13 13 13 13 14 15 16 17 19 19 20 20 20 20 20 22 22 23 23 22 22 21 22 22 21 20 20 20 20 20
25 26 25 25 24 23 22 20 19 18 17 17 17 15 14 14 13 13 13 13 14 13 11 12 13 14 16 17 18 19 19 19 20 20 21 23 24 23 24 24 23 23 23 23 22 22 22 22 22
24 25 25 24 24 23 21 19 18 17 17 17 16 14 13 13 12 11 12 13 12 11 11 12 12 13 14 15 17 18 18 20 20 20 20 21 23 23 24 24 25 25 25 25 24 24 24 24 24
22 23 24 24 23 22 20 19 17 16 15 15 14 13 13 13 12 11 12 12 11 10 9 10 11 11 12 13 15 16 18 20 21 22 22 23 23 24 24 25 25 25 26 26 26 26 26 26 25
20 22 23 23 22 21 20 18 17 15 14 13 13 13 13 13 12 11 11 11 10 9 8 9 9 10 12 13 14 16 19 20 21 22 22 23 24 24 25 26 26 27 27 27 28 27 27 27 26
18 21 22 22 21 21 20 18 17 16 14 13 12 12 12 12 12 12 11 11 10 9 8 9 10 11 12 13 14 16 18 20 21 22 23 24 24 25 25 26 27 28 28 28 28 28 29 28 28
17 18 21 22 21 20 19 17 17 16 15 14 13 12 13 13 13 13 12 11 10 10 10 10 10 11 12 14 15 17 19 20 21 22 23 24 26 26 27 27 28 29 29 28 29 30 30 30 30
16 17 18 20 19 18 18 18 16 15 14 14 13 13 13 12 12 13 13 12 12 12 12 11 11 12 13 15 15 17 18 19 21 23 24 25 25 26 27 28 29 29 29 29 29 30 30 30 30
16 16 16 16 16 16 16 15 13 13 14 14 14 14 14 13 13 14 13 13 13 13 13 13 13 13 14 15 15 17 18 20 21 23 23 24 25 25 27 28 30 30 30 30 31 31 31 31 31
15 16 15 15 14 14 14 14 11 11 12 12 13 13 14 15 15 15 14 14 14 14 14 14 14 14 14 15 16 17 18 20 21 23 24 24 25 26 27 29 30 30 30 30 31 31 31 31 31
14 15 15 15 15 14 14 14 12 11 11 12 13 13 13 15 15 15 15 15 15 15 16 16 16 16 16 16 17 18 18 19 20 22 23 24 25 26 27 29 29 29 29 30 30 31 31 31 31
14 14 15 15 16 16 15 15 13 12 13 13 14 14 14 14 14 15 16 16 17 17 17 17 17 17 18 18 19 19 20 21 21 22 23 23 24 26 26 27 28 29 29 29 30 30 31 31 31
14 14 14 15 15 15 16 16 14 14 15 14 14 13 14 14 14 16 17 17 18 18 18 18 18 19 19 20 20 20 21 22 22 22 23 24 24 25 25 26 27 28 28 28 29 30 30 30 31
13 14 14 15 15 16 16 15 15 15 15 16 15 15 15 16 17 18 18 19 19 19 20 20 21 21 21 21 22 22 22 22 23 23 24 24 24 24 25 26 26 27 27 27 28 28 29 29 29
14 15 15 16 16 16 16 15 15 15 15 16 16 16 16 18 19 20 19 19 19 20 21 22 22 23 23 23 23 23 23 24 24 24 24 24 24 24 25 25 25 26 26 27 27 27 28 28 29
14 15 15 15 16 17 16 15 15 16 16 16 16 16 17 19 20 21 20 20 20 21 23 24 24 24 25 25 25 25 25 25 25 25 25 25 25 25 25 26 26 26 27 27 27 27 27 27 27
14 15 15 16 16 17 17 16 16 17 16 16 17 17 18 18 20 21 21 21 22 22 24 25 25 26 26 26 26 26 26 26 26 26 26 25 25 25 25 26 26 26 26 26 26 26 26 26 26
Wind_Direction
250 245 241 237 233 230 230 235 238 241 243 247 249 251 255 262 270 277 278 282 283 286 290 288 283 275 267 260 247 232 220 217 215 221 230 242 257 273 291 304 316 324 331 339 343 344 346 347 349
248 244 239 234 229 223 225 232 236 241 244 246 248 252 257 262 268 280 285 284 284 286 287 283 279 273 267 258 247 237 227 223 223 227 236 246 254 261 273 285 299 311 318 327 333 335 337 338 339
245 241 237 232 225 222 225 230 235 240 243 244 246 250 255 263 274 285 286 285 284 285 283 278 273 269 262 257 246 238 232 230 229 233 240 244 249 255 264 275 287 300 309 314 322 325 326 326 325
242 238 233 227 220 221 224 229 234 238 242 243 245 249 257 266 275 281 284 285 284 281 279 274 268 263 257 254 247 240 236 235 235 237 241 245 250 256 263 271 278 287 296 303 307 311 314 316 315
240 234 228 222 218 219 223 227 232 237 241 245 247 249 257 266 273 279 283 286 284 281 280 273 264 256 251 246 241 241 239 238 238 239 242 246 250 256 262 268 273 277 282 290 295 297 301 305 307
237 230 223 217 217 219 224 228 231 235 238 244 248 253 259 265 273 278 284 286 287 283 277 268 259 252 247 239 236 239 239 239 240 240 241 245 249 254 259 264 269 272 275 280 284 289 290 293 297
230 224 218 215 218 221 225 230 233 235 237 243 252 258 263 267 272 279 283 286 286 280 274 266 259 253 243 234 231 233 236 238 239 240 241 244 250 254 258 261 266 271 274 277 279 281 283 284 287
225 220 216 215 218 222 226 230 235 237 240 246 252 260 266 268 273 281 287 290 287 280 277 268 259 250 238 232 228 231 235 235 237 240 242 244 248 251 254 258 263 267 272 274 276 276 276 279 281
222 217 215 215 218 222 226 229 234 239 243 248 253 262 267 274 279 285 289 290 287 281 277 266 257 247 235 234 232 232 234 235 236 238 240 242 246 250 252 255 258 263 268 271 273 275 275 275 276
218 214 214 216 219 222 225 229 233 238 244 251 257 268 275 280 286 289 291 293 291 285 275 266 257 242 234 231 234 235 235 234 234 235 239 242 246 250 252 254 257 261 265 269 271 272 274 274 273
215 213 214 216 220 223 226 230 235 241 249 255 262 271 279 285 288 290 293 295 290 289 277 267 253 237 228 229 233 237 235 234 234 235 238 242 245 248 250 253 257 260 263 266 268 270 272 271 272
212 213 215 217 220 223 227 232 236 242 249 255 264 271 280 284 290 290 293 294 289 284 280 268 250 243 233 229 235 236 233 234 235 235 238 241 244 246 248 252 256 258 261 264 265 267 268 268 268
210 212 214 217 220 224 229 233 236 243 250 257 265 275 282 286 291 291 288 283 285 281 272 264 251 248 239 235 232 230 229 231 233 237 239 241 244 247 249 252 255 257 260 262 265 266 266 268 267
210 212 214 217 220 224 229 233 239 245 253 262 274 283 287 291 290 289 289 289 288 282 274 263 252 245 241 237 232 229 228 231 234 238 241 243 245 247 250 253 255 259 261 262 262 263 267 267 267
211 212 215 219 221 224 230 234 242 252 260 268 276 281 286 291 290 288 291 292 289 283 270 254 246 240 241 239 233 229 230 235 238 240 242 245 248 250 251 252 254 258 260 262 262 263 264 266 267
211 212 217 221 224 229 232 238 247 257 263 269 274 279 282 283 282 282 285 287 285 281 266 248 245 246 245 241 236 235 236 239 242 245 247 249 250 251 252 253 254 257 259 260 262 264 265 266 267
211 212 219 224 228 233 237 241 249 257 261 269 276 278 280 280 280 281 281 283 283 282 267 255 253 253 248 246 243 240 242 243 246 250 252 251 252 253 254 255 255 257 259 260 261 264 265 267 267
212 215 221 226 231 235 239 242 246 251 260 270 275 278 280 281 282 282 282 280 280 279 273 260 259 257 252 250 247 245 246 247 248 252 253 254 254 254 254 255 257 258 260 261 263 263 264 266 267
212 217 223 227 232 236 237 240 245 251 260 268 273 276 279 277 282 283 277 275 279 278 276 272 265 263 263 257 252 250 249 251 253 256 256 256 256 256 256 255 256 258 260 261 262 263 264 264 265
212 214 221 228 234 237 241 244 247 252 259 266 273 274 276 280 283 283 277 275 274 275 277 276 271 269 268 263 259 253 251 253 256 258 258 260 259 259 259 258 257 258 260 261 261 262 263 264 265
209 210 219 228 234 238 244 249 252 257 265 273 275 277 277 281 280 277 273 275 274 275 276 275 272 269 268 266 263 260 259 259 260 260 261 262 262 262 261 260 260 261 261 261 261 262 263 263 265
210 211 218 225 229 236 245 252 256 261 266 275 275 277 274 276 276 275 271 272 276 276 274 275 273 271 270 270 267 265 263 263 262 263 263 263 265 265 265 263 263 261 261 261 261 262 263 263 265
210 215 223 231 235 241 247 250 257 267 272 279 279 276 273 273 277 273 266 269 274 275 274 275 275 276 277 277 274 270 268 267 265 264 264 266 267 267 266 265 265 263 263 262 262 262 263 265 265
218 223 228 235 242 246 252 256 264 270 276 280 281 273 277 276 275 271 264 268 272 274 275 274 275 278 280 280 277 275 274 272 270 268 267 268 269 268 266 265 264 263 264 263 263 263 264 265 265
226 230 231 237 244 250 258 263 268 269 277 283 287 281 277 279 274 269 264 266 268 270 273 275 277 278 279 280 280 277 276 275 274 272 271 271 271 271 269 266 263 262 264 264 264 264 264 265 265
233 235 241 248 253 254 259 266 274 276 278 284 289 287 283 282 279 278 271 268 269 271 274 277 279 279 279 280 281 280 279 277 277 276 274 273 273 272 270 267 266 264 264 265 266 266 265 266 266
238 238 244 252 259 261 265 272 274 280 280 286 288 287 284 284 285 282 276 274 273 274 276 279 281 280 279 281 282 282 280 278 278 276 275 274 273 271 271 269 267 264 263 265 266 266 266 266 266
243 244 248 253 262 267 269 271 277 283 285 284 284 284 285 283 283 281 276 276 274 276 279 281 282 281 281 281 281 281 280 279 278 277 276 276 275 272 271 269 266 264 263 264 264 266 266 267 266
249 250 253 259 266 272 274 274 279 285 288 287 286 282 281 281 280 278 274 274 277 278 280 282 282 281 281 281 281 280 280 279 278 278 277 278 277 273 270 270 268 266 265 264 265 267 267 267 266
252 253 258 263 269 275 279 281 283 285 286 288 291 290 288 288 282 276 275 276 279 280 280 282 282 281 281 282 281 280 279 279 279 279 278 278 277 275 272 270 269 267 264 264 265 268 267 266 263